VCTRY22 KNTU-KNTU

Flight info

Callsign VCTRY22
Flight time N/A
Altitude 10000
Route VFR OPR
Aircraft F18S/M-VD/C

Departure

Time 2026-04-25 22:43
Airport Oceana Naval Air Station (KNTU)

Arrival

Time N/A
Airport Oceana Naval Air Station (KNTU)
Time Latitude Longitude Altitude Speed Heading
2026-04-25 22:23 36.81335 -76.03383 30 ft 0 kts 133°
2026-04-25 22:33 36.81325 -76.03391 30 ft 1 kts 283°
2026-04-25 22:33 36.81338 -76.03437 30 ft 10 kts 295°
2026-04-25 22:34 36.81383 -76.03511 30 ft 7 kts 311°
2026-04-25 22:34 36.81392 -76.03524 30 ft 0 kts 311°
2026-04-25 22:38 36.81393 -76.03525 30 ft 2 kts 311°
2026-04-25 22:39 36.81451 -76.03587 30 ft 17 kts 321°
2026-04-25 22:39 36.81497 -76.03689 30 ft 14 kts 238°
2026-04-25 22:39 36.81374 -76.03835 30 ft 35 kts 224°
2026-04-25 22:39 36.81210 -76.04031 30 ft 26 kts 223°
2026-04-25 22:40 36.81106 -76.04141 30 ft 13 kts 222°
2026-04-25 22:40 36.81054 -76.04199 30 ft 9 kts 222°
2026-04-25 22:40 36.80983 -76.04279 30 ft 21 kts 222°
2026-04-25 22:40 36.80824 -76.04452 30 ft 39 kts 222°
2026-04-25 22:41 36.80595 -76.04699 30 ft 39 kts 231°
2026-04-25 22:41 36.80507 -76.04871 30 ft 13 kts 296°
2026-04-25 22:41 36.80527 -76.04903 30 ft 0 kts 316°
2026-04-25 22:42 36.80540 -76.04920 30 ft 11 kts 314°
2026-04-25 22:42 36.80599 -76.04934 30 ft 5 kts 37°
2026-04-25 22:42 36.80842 -76.04658 30 ft 111 kts 43°
2026-04-25 22:42 36.81760 -76.03622 270 ft 232 kts 44°
2026-04-25 22:43 36.83200 -76.01979 821 ft 308 kts 44°
2026-04-25 22:43 36.84850 -76.00003 1399 ft 357 kts 45°
2026-04-25 22:43 36.85470 -75.99233 1461 ft 377 kts 45°
2026-04-25 22:43 36.86476 -75.97958 1604 ft 404 kts 46°
2026-04-25 22:44 36.88421 -75.95156 2133 ft 450 kts 51°
2026-04-25 22:44 36.90557 -75.92072 2800 ft 488 kts 49°
2026-04-25 22:44 36.92755 -75.88672 3365 ft 521 kts 58°
2026-04-25 22:44 36.93445 -75.84398 4309 ft 509 kts 107°
2026-04-25 22:45 36.91840 -75.80587 5511 ft 469 kts 125°
2026-04-25 22:45 36.90054 -75.77245 9575 ft 456 kts 125°
2026-04-25 22:45 36.88306 -75.74001 13869 ft 445 kts 125°
2026-04-25 22:45 36.86409 -75.70771 16779 ft 503 kts 126°
2026-04-25 22:46 36.84432 -75.66738 16352 ft 580 kts 121°
2026-04-25 22:46 36.82925 -75.61851 15527 ft 629 kts 96°
2026-04-25 22:46 36.83008 -75.56317 14710 ft 647 kts 80°
2026-04-25 22:46 36.83754 -75.50972 13754 ft 603 kts 80°
2026-04-25 22:47 36.84451 -75.45908 12932 ft 584 kts 80°
2026-04-25 22:47 36.85128 -75.41001 13081 ft 571 kts 80°
2026-04-25 22:47 36.85802 -75.36121 13016 ft 568 kts 80°
2026-04-25 22:47 36.86471 -75.31278 13048 ft 565 kts 80°
2026-04-25 22:48 36.87147 -75.26382 13038 ft 565 kts 80°
2026-04-25 22:48 36.87813 -75.21554 13040 ft 565 kts 80°
2026-04-25 22:48 36.88473 -75.16774 13041 ft 564 kts 80°
2026-04-25 22:48 36.89148 -75.11884 13040 ft 564 kts 80°
2026-04-25 22:49 36.89816 -75.07047 13040 ft 564 kts 80°
2026-04-25 22:49 36.90481 -75.02221 13040 ft 565 kts 80°
2026-04-25 22:49 36.91139 -74.97431 13041 ft 569 kts 80°
2026-04-25 22:49 36.91810 -74.92468 13040 ft 574 kts 80°
2026-04-25 22:50 36.92474 -74.87544 13040 ft 576 kts 80°
2026-04-25 22:50 36.93138 -74.82612 13040 ft 577 kts 80°
2026-04-25 22:50 36.93805 -74.77664 13040 ft 577 kts 80°
2026-04-25 22:50 36.94471 -74.72717 13040 ft 578 kts 80°
2026-04-25 22:51 36.95140 -74.67755 13040 ft 578 kts 80°
2026-04-25 22:51 36.95807 -74.62805 13040 ft 578 kts 80°
2026-04-25 22:51 36.96474 -74.57849 13040 ft 578 kts 80°
2026-04-25 22:51 36.97140 -74.52904 13040 ft 578 kts 80°
2026-04-25 22:52 36.97808 -74.47944 13040 ft 578 kts 80°
2026-04-25 22:52 36.98475 -74.42992 13040 ft 578 kts 81°
2026-04-25 22:52 36.99019 -74.38007 13035 ft 578 kts 86°
2026-04-25 22:52 36.99065 -74.34683 13039 ft 577 kts 94°
2026-04-25 22:53 36.98131 -74.28111 13048 ft 575 kts 104°
2026-04-25 22:53 36.97483 -74.23162 13030 ft 576 kts 98°
2026-04-25 22:53 36.96972 -74.18183 13044 ft 577 kts 98°
2026-04-25 22:53 36.96462 -74.13209 13036 ft 577 kts 98°
2026-04-25 22:54 36.95951 -74.08237 13041 ft 577 kts 98°
2026-04-25 22:54 36.95442 -74.03272 13039 ft 577 kts 98°
2026-04-25 22:54 36.94931 -73.98295 13040 ft 577 kts 98°
2026-04-25 22:54 36.94421 -73.93327 13040 ft 577 kts 98°
2026-04-25 22:55 36.93909 -73.88343 13040 ft 577 kts 98°
2026-04-25 22:55 36.93398 -73.83367 13040 ft 577 kts 98°
2026-04-25 22:55 36.92887 -73.78396 13040 ft 577 kts 98°
2026-04-25 22:55 36.92377 -73.73423 13040 ft 577 kts 98°
2026-04-25 22:56 36.91867 -73.68459 13040 ft 577 kts 98°
2026-04-25 22:56 36.91356 -73.63491 13040 ft 571 kts 98°
2026-04-25 22:56 36.90865 -73.58685 13040 ft 544 kts 98°
2026-04-25 22:56 36.90396 -73.54085 12716 ft 522 kts 98°
2026-04-25 22:57 36.89900 -73.49456 9656 ft 553 kts 99°
2026-04-25 22:57 36.89368 -73.44637 7621 ft 554 kts 98°
2026-04-25 22:57 36.88877 -73.39969 7527 ft 531 kts 98°
2026-04-25 22:57 36.88431 -73.35484 7628 ft 511 kts 98°
2026-04-25 22:58 36.88020 -73.31116 6887 ft 511 kts 98°
2026-04-25 22:58 36.87615 -73.26621 5279 ft 528 kts 97°
2026-04-25 22:58 36.87227 -73.22019 3732 ft 537 kts 97°
2026-04-25 22:58 36.86900 -73.17440 3346 ft 520 kts 94°
2026-04-25 22:59 36.87030 -73.14479 3260 ft 510 kts 83°
2026-04-25 22:59 36.87971 -73.10257 2761 ft 506 kts 67°
2026-04-25 22:59 36.89534 -73.06351 2425 ft 495 kts 63°
2026-04-25 22:59 36.91428 -73.02847 2308 ft 486 kts 40°
2026-04-25 23:00 36.94465 -73.02411 2680 ft 452 kts 323°
2026-04-25 23:00 36.96836 -73.04895 2912 ft 442 kts 315°
2026-04-25 23:00 36.98913 -73.07709 2854 ft 440 kts 302°
2026-04-25 23:00 37.00580 -73.10904 2872 ft 439 kts 298°
2026-04-25 23:01 37.02073 -73.14234 2870 ft 438 kts 296°
2026-04-25 23:01 37.03469 -73.17620 2905 ft 437 kts 294°
2026-04-25 23:01 37.04762 -73.21053 2976 ft 435 kts 291°
2026-04-25 23:01 37.05950 -73.24529 3082 ft 432 kts 289°
2026-04-25 23:02 37.07740 -73.27151 3129 ft 424 kts
2026-04-25 23:02 37.09300 -73.24722 2742 ft 396 kts 98°
2026-04-25 23:02 37.08957 -73.21211 2348 ft 413 kts 98°
2026-04-25 23:02 37.08613 -73.17613 2250 ft 417 kts 99°
2026-04-25 23:03 37.08203 -73.14012 2271 ft 418 kts 100°
2026-04-25 23:03 37.07761 -73.10414 2344 ft 417 kts 101°
2026-04-25 23:03 37.06882 -73.07156 2339 ft 389 kts 154°
2026-04-25 23:03 37.04232 -73.06286 2200 ft 399 kts 168°
2026-04-25 23:04 37.01555 -73.05368 2049 ft 400 kts 143°
2026-04-25 23:04 36.99957 -73.02614 1789 ft 402 kts 112°
2026-04-25 23:04 36.98981 -72.99310 1598 ft 407 kts 110°
2026-04-25 23:04 36.98110 -72.95950 1451 ft 391 kts 98°
2026-04-25 23:05 36.99422 -72.93648 1589 ft 343 kts
2026-04-25 23:05 37.01135 -72.95164 1260 ft 305 kts 301°
2026-04-25 23:05 37.01973 -72.97403 1056 ft 264 kts 272°
2026-04-25 23:05 37.01352 -72.99090 911 ft 203 kts 197°
2026-04-25 23:06 37.00137 -72.98848 740 ft 173 kts 128°
2026-04-25 23:06 36.99549 -72.97620 640 ft 162 kts 112°
2026-04-25 23:06 36.99210 -72.96323 354 ft 153 kts 101°
2026-04-25 23:06 36.98968 -72.95078 73 ft 140 kts 100°
2026-04-25 23:07 36.98865 -72.94656 73 ft 35 kts 100°
2026-04-25 23:07 36.98780 -72.94362 73 ft 38 kts 102°
2026-04-25 23:07 36.98694 -72.94062 73 ft 35 kts 106°
2026-04-25 23:07 36.98611 -72.93776 73 ft 35 kts 106°
2026-04-25 23:08 36.98527 -72.93488 73 ft 35 kts 106°
2026-04-25 23:08 36.98443 -72.93200 73 ft 35 kts 106°
2026-04-25 23:08 36.98361 -72.92918 73 ft 36 kts 107°
2026-04-25 23:08 36.98277 -72.92627 73 ft 36 kts 108°
2026-04-25 23:09 36.98192 -72.92336 73 ft 35 kts 109°
2026-04-25 23:09 36.98109 -72.92051 73 ft 34 kts 109°
2026-04-25 23:09 36.98026 -72.91766 73 ft 35 kts 109°
2026-04-25 23:09 36.97942 -72.91478 73 ft 35 kts 110°
2026-04-25 23:10 36.97854 -72.91178 73 ft 41 kts 111°
2026-04-25 23:10 36.97559 -72.89623 579 ft 267 kts 101°
2026-04-25 23:10 36.97205 -72.87137 1091 ft 312 kts 82°
2026-04-25 23:10 36.98521 -72.84865 1804 ft 359 kts 30°
2026-04-25 23:11 37.00718 -72.85689 2168 ft 375 kts 296°
2026-04-25 23:11 37.01664 -72.88890 1584 ft 408 kts 287°
2026-04-25 23:11 37.02585 -72.92335 1238 ft 426 kts 288°
2026-04-25 23:11 37.03535 -72.95915 950 ft 439 kts 288°
2026-04-25 23:12 37.04489 -72.99574 717 ft 446 kts 288°
2026-04-25 23:12 37.05436 -73.03287 548 ft 448 kts 288°
2026-04-25 23:12 37.06356 -73.06976 772 ft 440 kts 287°
2026-04-25 23:12 37.07249 -73.10620 1020 ft 436 kts 285°
2026-04-25 23:13 37.07569 -73.14171 1292 ft 392 kts 229°
2026-04-25 23:13 37.05684 -73.14233 1405 ft 310 kts 100°
2026-04-25 23:13 37.05485 -73.11497 1520 ft 318 kts 99°
2026-04-25 23:13 37.05262 -73.08734 1714 ft 327 kts 98°
2026-04-25 23:14 37.05088 -73.05827 1972 ft 334 kts 94°
2026-04-25 23:14 37.04929 -73.02908 2207 ft 341 kts 102°
2026-04-25 23:14 37.03617 -73.00504 2014 ft 353 kts 145°
2026-04-25 23:14 37.01427 -72.98905 1577 ft 372 kts 146°
2026-04-25 23:15 36.99308 -72.97064 1601 ft 373 kts 141°
2026-04-25 23:15 36.97433 -72.94824 1491 ft 374 kts 126°
2026-04-25 23:15 36.96192 -72.91970 1485 ft 377 kts 110°
2026-04-25 23:15 36.95409 -72.88835 1499 ft 378 kts 108°
2026-04-25 23:16 36.94689 -72.85676 1554 ft 378 kts 107°
2026-04-25 23:16 36.94570 -72.82640 1635 ft 343 kts 60°
2026-04-25 23:16 36.96572 -72.81744 1522 ft 315 kts 334°
2026-04-25 23:16 36.97546 -72.83823 1052 ft 274 kts 279°
2026-04-25 23:17 36.97837 -72.85936 1136 ft 202 kts 260°
2026-04-25 23:17 36.97208 -72.87027 640 ft 146 kts 182°
2026-04-25 23:17 36.96099 -72.86567 560 ft 205 kts 118°
2026-04-25 23:17 36.95699 -72.84797 357 ft 199 kts 99°
2026-04-25 23:18 36.95387 -72.83422 274 ft 151 kts 111°
2026-04-25 23:18 36.94955 -72.82110 375 ft 174 kts 105°
2026-04-25 23:18 36.94697 -72.80421 433 ft 235 kts 85°
2026-04-25 23:18 36.95662 -72.78585 1013 ft 303 kts 21°
2026-04-25 23:19 36.97593 -72.79872 1450 ft 387 kts 298°
2026-04-25 23:19 36.98542 -72.83294 1641 ft 441 kts 266°
2026-04-25 23:19 36.97333 -72.86614 2018 ft 427 kts 206°
2026-04-25 23:19 36.94791 -72.86034 1897 ft 399 kts 121°
2026-04-25 23:20 36.93526 -72.82872 1892 ft 413 kts 114°
2026-04-25 23:20 36.92335 -72.79553 1947 ft 424 kts 112°
2026-04-25 23:20 36.91207 -72.76117 2041 ft 431 kts 107°
2026-04-25 23:20 36.91921 -72.72736 2227 ft 437 kts 34°
2026-04-25 23:21 36.94621 -72.73391 2172 ft 445 kts 305°
2026-04-25 23:21 36.96395 -72.76630 2254 ft 457 kts 303°
2026-04-25 23:21 36.98148 -72.79989 2370 ft 465 kts 301°
2026-04-25 23:21 36.98864 -72.83616 2948 ft 421 kts 249°
2026-04-25 23:22 36.96831 -72.85695 2990 ft 395 kts 182°
2026-04-25 23:22 36.94597 -72.83945 2340 ft 408 kts 121°
2026-04-25 23:22 36.93412 -72.80720 2129 ft 410 kts 111°
2026-04-25 23:23 36.92319 -72.74286 2208 ft 335 kts 59°
2026-04-25 23:23 36.94183 -72.73467 2020 ft 294 kts 329°
2026-04-25 23:23 36.95154 -72.75474 1608 ft 260 kts 290°
2026-04-25 23:23 36.95694 -72.77318 1517 ft 194 kts 277°
2026-04-25 23:24 36.95445 -72.78824 1199 ft 176 kts 218°
2026-04-25 23:24 36.94427 -72.79088 865 ft 153 kts 138°
2026-04-25 23:24 36.93771 -72.78093 756 ft 145 kts 114°
2026-04-25 23:24 36.93425 -72.76910 502 ft 150 kts 101°
2026-04-25 23:25 36.93185 -72.75601 324 ft 157 kts 101°
2026-04-25 23:25 36.92922 -72.74321 74 ft 137 kts 103°
2026-04-25 23:25 36.92819 -72.73941 73 ft 38 kts 105°
2026-04-25 23:25 36.92733 -72.73645 73 ft 35 kts 109°
2026-04-25 23:26 36.92650 -72.73359 73 ft 35 kts 109°
2026-04-25 23:26 36.92567 -72.73074 73 ft 35 kts 109°
2026-04-25 23:26 36.92484 -72.72789 73 ft 35 kts 109°
2026-04-25 23:26 36.92392 -72.72476 73 ft 40 kts 115°
2026-04-25 23:27 36.92307 -72.72188 73 ft 36 kts 120°
2026-04-25 23:27 36.92211 -72.71913 73 ft 30 kts 256°
2026-04-25 23:27 36.92129 -72.71652 73 ft 33 kts 298°
2026-04-25 23:27 36.92049 -72.71372 73 ft 34 kts 308°
2026-04-25 23:28 36.91967 -72.71088 73 ft 35 kts 308°
2026-04-25 23:28 36.91885 -72.70804 73 ft 35 kts 310°
2026-04-25 23:28 36.91803 -72.70521 73 ft 34 kts 311°
2026-04-25 23:28 36.91721 -72.70237 73 ft 35 kts 312°
2026-04-25 23:29 36.91639 -72.69953 73 ft 35 kts 312°
2026-04-25 23:29 36.91557 -72.69669 73 ft 35 kts 312°
2026-04-25 23:29 36.91475 -72.69385 73 ft 35 kts 313°
2026-04-25 23:29 36.91393 -72.69101 73 ft 34 kts 314°
2026-04-25 23:30 36.91311 -72.68817 73 ft 34 kts 314°
2026-04-25 23:30 36.91229 -72.68533 73 ft 35 kts 314°
2026-04-25 23:30 36.91147 -72.68250 73 ft 35 kts 315°
2026-04-25 23:30 36.91066 -72.67966 73 ft 35 kts 316°
2026-04-25 23:31 36.90984 -72.67682 73 ft 35 kts 316°
2026-04-25 23:31 36.90929 -72.67493 73 ft 35 kts 316°